User: anonymous   Login
Location: Endfield
(51.6667°N, 0.0667°W)
Time: 19:54:44
(UTC+00:00)
Language:

USA 229 DEB - Orbit

View from above orbital plane
View from above orbital plane
View from above satellite
View from above satellite

Ground track
Ground track

The orbit data is extracted from the following two-line orbital elements,

1 37391U 11014B   24203.04348428 0.00000000  00000-0  00000-0 0    07
2 37391  63.4291 257.9997 0290075 357.5321   2.4679 13.40916798    03
Epoch (UTC): 21 July 2024 01:02:37
Eccentricity: 0.0290075
inclination: 63.4291°
perigee height: 889 km
apogee height: 1323 km
right ascension of ascending node: 257.9997°
argument of perigee: 357.5321°
revolutions per day: 13.40916798
mean anomaly at epoch: 2.4679°
orbit number at epoch: 0

The dashed part of the orbit path shows where the satellite is in the earth's shadow,  

DLR